<?xml version="1.0" encoding="UTF-8" standalone="no" ?>
<gpx xmlns="http://www.topografix.com/GPX/1/1" xmlns:xsi="http://www.w3.org/2001/XMLSchema-instance" xsi:schemaLocation="http://www.topografix.com/GPX/1/1 http://www.topografix.com/GPX/1/1/gpx.xsd" version="1.1" creator="VisuGPX - https://www.visugpx.com">
  <metadata>
    <name>VILLENEUVE /YONNE</name>
    <desc><![CDATA[ITINERAIRE DU 6/04/2014]]></desc>
  </metadata>
  <trk>
    <name><![CDATA[VILLENEUVE /YONNE_1]]></name>
    <trkseg>
      <trkpt lat="48.0117" lon="3.33038">
        <ele>126.5</ele>
        <time>2014-04-06T07:08:19Z</time>
      </trkpt>
      <trkpt lat="48.01002" lon="3.32946">
        <ele>114.1</ele>
        <time>2014-04-06T07:08:19Z</time>
      </trkpt>
      <trkpt lat="48.01082" lon="3.32887">
        <ele>127.9</ele>
        <time>2014-04-06T07:08:19Z</time>
      </trkpt>
      <trkpt lat="48.01245" lon="3.32952">
        <ele>156.7</ele>
        <time>2014-04-06T07:08:19Z</time>
      </trkpt>
      <trkpt lat="48.0138" lon="3.33123">
        <ele>175.7</ele>
        <time>2014-04-06T07:08:19Z</time>
      </trkpt>
      <trkpt lat="48.01515" lon="3.33281">
        <ele>180</ele>
        <time>2014-04-06T07:08:19Z</time>
      </trkpt>
      <trkpt lat="48.01661" lon="3.33357">
        <ele>182</ele>
        <time>2014-04-06T07:08:19Z</time>
      </trkpt>
      <trkpt lat="48.01833" lon="3.33422">
        <ele>178.6</ele>
        <time>2014-04-06T07:08:19Z</time>
      </trkpt>
      <trkpt lat="48.02002" lon="3.33553">
        <ele>179.3</ele>
        <time>2014-04-06T07:08:19Z</time>
      </trkpt>
      <trkpt lat="48.01925" lon="3.33587">
        <ele>167.3</ele>
        <time>2014-04-06T07:08:19Z</time>
      </trkpt>
      <trkpt lat="48.01789" lon="3.33739">
        <ele>143.8</ele>
        <time>2014-04-06T07:08:19Z</time>
      </trkpt>
      <trkpt lat="48.0167" lon="3.33956">
        <ele>122.5</ele>
        <time>2014-04-06T07:08:19Z</time>
      </trkpt>
      <trkpt lat="48.01583" lon="3.34133">
        <ele>110</ele>
        <time>2014-04-06T07:08:19Z</time>
      </trkpt>
      <trkpt lat="48.01735" lon="3.34291">
        <ele>120.7</ele>
        <time>2014-04-06T07:08:19Z</time>
      </trkpt>
      <trkpt lat="48.0182" lon="3.34504">
        <ele>126</ele>
        <time>2014-04-06T07:08:19Z</time>
      </trkpt>
      <trkpt lat="48.01815" lon="3.34767">
        <ele>130.6</ele>
        <time>2014-04-06T07:08:19Z</time>
      </trkpt>
      <trkpt lat="48.01806" lon="3.35025">
        <ele>135</ele>
        <time>2014-04-06T07:08:19Z</time>
      </trkpt>
      <trkpt lat="48.01722" lon="3.35235">
        <ele>140.5</ele>
        <time>2014-04-06T07:08:19Z</time>
      </trkpt>
      <trkpt lat="48.01792" lon="3.3546">
        <ele>146.5</ele>
        <time>2014-04-06T07:08:19Z</time>
      </trkpt>
      <trkpt lat="48.01862" lon="3.35687">
        <ele>152.2</ele>
        <time>2014-04-06T07:08:19Z</time>
      </trkpt>
      <trkpt lat="48.01851" lon="3.35942">
        <ele>157.8</ele>
        <time>2014-04-06T07:08:19Z</time>
      </trkpt>
      <trkpt lat="48.01923" lon="3.36147">
        <ele>163.9</ele>
        <time>2014-04-06T07:08:19Z</time>
      </trkpt>
      <trkpt lat="48.02032" lon="3.36325">
        <ele>177.1</ele>
        <time>2014-04-06T07:08:19Z</time>
      </trkpt>
      <trkpt lat="48.02084" lon="3.36547">
        <ele>188.4</ele>
        <time>2014-04-06T07:08:19Z</time>
      </trkpt>
      <trkpt lat="48.02248" lon="3.36531">
        <ele>202</ele>
        <time>2014-04-06T07:08:19Z</time>
      </trkpt>
      <trkpt lat="48.02361" lon="3.3641">
        <ele>204.8</ele>
        <time>2014-04-06T07:08:19Z</time>
      </trkpt>
      <trkpt lat="48.02536" lon="3.36339">
        <ele>201.5</ele>
        <time>2014-04-06T07:08:19Z</time>
      </trkpt>
      <trkpt lat="48.02676" lon="3.36195">
        <ele>197.7</ele>
        <time>2014-04-06T07:08:19Z</time>
      </trkpt>
      <trkpt lat="48.02818" lon="3.36049">
        <ele>193.4</ele>
        <time>2014-04-06T07:08:19Z</time>
      </trkpt>
      <trkpt lat="48.02923" lon="3.35834">
        <ele>190.8</ele>
        <time>2014-04-06T07:08:19Z</time>
      </trkpt>
      <trkpt lat="48.04327" lon="3.34224">
        <ele>97.6</ele>
        <time>2014-04-06T07:08:19Z</time>
      </trkpt>
      <trkpt lat="48.04365" lon="3.33915">
        <ele>94.7</ele>
        <time>2014-04-06T07:08:19Z</time>
      </trkpt>
      <trkpt lat="48.04426" lon="3.33627">
        <ele>90.3</ele>
        <time>2014-04-06T07:08:19Z</time>
      </trkpt>
      <trkpt lat="48.0448" lon="3.33345">
        <ele>87.3</ele>
        <time>2014-04-06T07:08:19Z</time>
      </trkpt>
      <trkpt lat="48.04613" lon="3.33477">
        <ele>90.8</ele>
        <time>2014-04-06T07:08:19Z</time>
      </trkpt>
      <trkpt lat="48.04649" lon="3.33755">
        <ele>108.1</ele>
        <time>2014-04-06T07:08:19Z</time>
      </trkpt>
      <trkpt lat="48.04668" lon="3.34008">
        <ele>136.4</ele>
        <time>2014-04-06T07:08:19Z</time>
      </trkpt>
      <trkpt lat="48.04686" lon="3.34222">
        <ele>147.8</ele>
        <time>2014-04-06T07:08:19Z</time>
      </trkpt>
      <trkpt lat="48.04806" lon="3.34403">
        <ele>166.6</ele>
        <time>2014-04-06T07:08:19Z</time>
      </trkpt>
      <trkpt lat="48.0491" lon="3.34283">
        <ele>174.9</ele>
        <time>2014-04-06T07:08:19Z</time>
      </trkpt>
      <trkpt lat="48.0494" lon="3.33996">
        <ele>175.8</ele>
        <time>2014-04-06T07:08:19Z</time>
      </trkpt>
      <trkpt lat="48.05046" lon="3.33901">
        <ele>177.7</ele>
        <time>2014-04-06T07:08:19Z</time>
      </trkpt>
      <trkpt lat="48.05174" lon="3.34098">
        <ele>183.7</ele>
        <time>2014-04-06T07:08:19Z</time>
      </trkpt>
      <trkpt lat="48.05333" lon="3.34224">
        <ele>188</ele>
        <time>2014-04-06T07:08:19Z</time>
      </trkpt>
      <trkpt lat="48.0549" lon="3.34368">
        <ele>185.2</ele>
        <time>2014-04-06T07:08:19Z</time>
      </trkpt>
      <trkpt lat="48.05637" lon="3.34508">
        <ele>177.7</ele>
        <time>2014-04-06T07:08:19Z</time>
      </trkpt>
      <trkpt lat="48.05792" lon="3.34642">
        <ele>172.1</ele>
        <time>2014-04-06T07:08:19Z</time>
      </trkpt>
      <trkpt lat="48.05954" lon="3.34723">
        <ele>166.9</ele>
        <time>2014-04-06T07:08:19Z</time>
      </trkpt>
      <trkpt lat="48.06108" lon="3.34865">
        <ele>169.8</ele>
        <time>2014-04-06T07:08:19Z</time>
      </trkpt>
      <trkpt lat="48.06244" lon="3.35048">
        <ele>160.5</ele>
        <time>2014-04-06T07:08:19Z</time>
      </trkpt>
      <trkpt lat="48.06356" lon="3.35259">
        <ele>141</ele>
        <time>2014-04-06T07:08:19Z</time>
      </trkpt>
      <trkpt lat="48.065" lon="3.35373">
        <ele>127</ele>
        <time>2014-04-06T07:08:19Z</time>
      </trkpt>
      <trkpt lat="48.06581" lon="3.35248">
        <ele>125.8</ele>
        <time>2014-04-06T07:08:19Z</time>
      </trkpt>
      <trkpt lat="48.06634" lon="3.3496">
        <ele>123.1</ele>
        <time>2014-04-06T07:08:19Z</time>
      </trkpt>
      <trkpt lat="48.06757" lon="3.34737">
        <ele>122.1</ele>
        <time>2014-04-06T07:08:19Z</time>
      </trkpt>
      <trkpt lat="48.06834" lon="3.34508">
        <ele>120</ele>
        <time>2014-04-06T07:08:19Z</time>
      </trkpt>
      <trkpt lat="48.06937" lon="3.34295">
        <ele>119</ele>
        <time>2014-04-06T07:08:19Z</time>
      </trkpt>
      <trkpt lat="48.07024" lon="3.34052">
        <ele>114</ele>
        <time>2014-04-06T07:08:19Z</time>
      </trkpt>
      <trkpt lat="48.07159" lon="3.33876">
        <ele>126.3</ele>
        <time>2014-04-06T07:08:19Z</time>
      </trkpt>
      <trkpt lat="48.07342" lon="3.3389">
        <ele>153</ele>
        <time>2014-04-06T07:08:19Z</time>
      </trkpt>
      <trkpt lat="48.07505" lon="3.33956">
        <ele>176.5</ele>
        <time>2014-04-06T07:08:19Z</time>
      </trkpt>
      <trkpt lat="48.07674" lon="3.33914">
        <ele>176.6</ele>
        <time>2014-04-06T07:08:19Z</time>
      </trkpt>
      <trkpt lat="48.07797" lon="3.33742">
        <ele>175.5</ele>
        <time>2014-04-06T07:08:19Z</time>
      </trkpt>
      <trkpt lat="48.07906" lon="3.33677">
        <ele>179</ele>
        <time>2014-04-06T07:08:19Z</time>
      </trkpt>
      <trkpt lat="48.08003" lon="3.33835">
        <ele>182</ele>
        <time>2014-04-06T07:08:19Z</time>
      </trkpt>
      <trkpt lat="48.0817" lon="3.33933">
        <ele>183.6</ele>
        <time>2014-04-06T07:08:19Z</time>
      </trkpt>
      <trkpt lat="48.08342" lon="3.33981">
        <ele>182.7</ele>
        <time>2014-04-06T07:08:19Z</time>
      </trkpt>
      <trkpt lat="48.08517" lon="3.34019">
        <ele>174.1</ele>
        <time>2014-04-06T07:08:19Z</time>
      </trkpt>
      <trkpt lat="48.08575" lon="3.34189">
        <ele>174.6</ele>
        <time>2014-04-06T07:08:19Z</time>
      </trkpt>
      <trkpt lat="48.08658" lon="3.34294">
        <ele>177.3</ele>
        <time>2014-04-06T07:08:19Z</time>
      </trkpt>
      <trkpt lat="48.08819" lon="3.34335">
        <ele>174.9</ele>
        <time>2014-04-06T07:08:19Z</time>
      </trkpt>
      <trkpt lat="48.08995" lon="3.34344">
        <ele>169.3</ele>
        <time>2014-04-06T07:08:19Z</time>
      </trkpt>
      <trkpt lat="48.09149" lon="3.34463">
        <ele>147.7</ele>
        <time>2014-04-06T07:08:19Z</time>
      </trkpt>
      <trkpt lat="48.09304" lon="3.34569">
        <ele>120.7</ele>
        <time>2014-04-06T07:08:19Z</time>
      </trkpt>
      <trkpt lat="48.09444" lon="3.34691">
        <ele>103</ele>
        <time>2014-04-06T07:08:19Z</time>
      </trkpt>
      <trkpt lat="48.09612" lon="3.34693">
        <ele>96.9</ele>
        <time>2014-04-06T07:08:19Z</time>
      </trkpt>
      <trkpt lat="48.09787" lon="3.34663">
        <ele>98.2</ele>
        <time>2014-04-06T07:08:19Z</time>
      </trkpt>
      <trkpt lat="48.09786" lon="3.34372">
        <ele>97.9</ele>
        <time>2014-04-06T07:08:19Z</time>
      </trkpt>
      <trkpt lat="48.09751" lon="3.3409">
        <ele>98</ele>
        <time>2014-04-06T07:08:19Z</time>
      </trkpt>
      <trkpt lat="48.097" lon="3.33795">
        <ele>99.2</ele>
        <time>2014-04-06T07:08:19Z</time>
      </trkpt>
      <trkpt lat="48.09759" lon="3.33695">
        <ele>104.3</ele>
        <time>2014-04-06T07:08:19Z</time>
      </trkpt>
      <trkpt lat="48.09835" lon="3.33459">
        <ele>118.3</ele>
        <time>2014-04-06T07:08:19Z</time>
      </trkpt>
      <trkpt lat="48.09847" lon="3.33206">
        <ele>136.3</ele>
        <time>2014-04-06T07:08:19Z</time>
      </trkpt>
      <trkpt lat="48.09975" lon="3.33121">
        <ele>159.5</ele>
        <time>2014-04-06T07:08:19Z</time>
      </trkpt>
      <trkpt lat="48.10149" lon="3.33095">
        <ele>165</ele>
        <time>2014-04-06T07:08:19Z</time>
      </trkpt>
      <trkpt lat="48.10284" lon="3.32929">
        <ele>174.6</ele>
        <time>2014-04-06T07:08:19Z</time>
      </trkpt>
      <trkpt lat="48.10422" lon="3.32894">
        <ele>175</ele>
        <time>2014-04-06T07:08:19Z</time>
      </trkpt>
      <trkpt lat="48.10546" lon="3.32749">
        <ele>169.3</ele>
        <time>2014-04-06T07:08:19Z</time>
      </trkpt>
      <trkpt lat="48.1067" lon="3.32597">
        <ele>167.4</ele>
        <time>2014-04-06T07:08:19Z</time>
      </trkpt>
      <trkpt lat="48.10819" lon="3.32449">
        <ele>171.9</ele>
        <time>2014-04-06T07:08:19Z</time>
      </trkpt>
      <trkpt lat="48.10828" lon="3.32184">
        <ele>175.5</ele>
        <time>2014-04-06T07:08:19Z</time>
      </trkpt>
      <trkpt lat="48.10867" lon="3.31929">
        <ele>172.4</ele>
        <time>2014-04-06T07:08:19Z</time>
      </trkpt>
      <trkpt lat="48.11036" lon="3.31944">
        <ele>171.7</ele>
        <time>2014-04-06T07:08:19Z</time>
      </trkpt>
      <trkpt lat="48.112" lon="3.31966">
        <ele>164.4</ele>
        <time>2014-04-06T07:08:19Z</time>
      </trkpt>
      <trkpt lat="48.11201" lon="3.3183">
        <ele>157.3</ele>
        <time>2014-04-06T07:08:19Z</time>
      </trkpt>
      <trkpt lat="48.11211" lon="3.31558">
        <ele>135.2</ele>
        <time>2014-04-06T07:08:19Z</time>
      </trkpt>
      <trkpt lat="48.11213" lon="3.31303">
        <ele>115.2</ele>
        <time>2014-04-06T07:08:19Z</time>
      </trkpt>
      <trkpt lat="48.11227" lon="3.31059">
        <ele>102.9</ele>
        <time>2014-04-06T07:08:19Z</time>
      </trkpt>
      <trkpt lat="48.11234" lon="3.30787">
        <ele>96.8</ele>
        <time>2014-04-06T07:08:19Z</time>
      </trkpt>
      <trkpt lat="48.11129" lon="3.30874">
        <ele>103.5</ele>
        <time>2014-04-06T07:08:19Z</time>
      </trkpt>
      <trkpt lat="48.11026" lon="3.31079">
        <ele>118</ele>
        <time>2014-04-06T07:08:19Z</time>
      </trkpt>
      <trkpt lat="48.10907" lon="3.30959">
        <ele>133.6</ele>
        <time>2014-04-06T07:08:19Z</time>
      </trkpt>
      <trkpt lat="48.10819" lon="3.30697">
        <ele>122.7</ele>
        <time>2014-04-06T07:08:19Z</time>
      </trkpt>
      <trkpt lat="48.10796" lon="3.30436">
        <ele>111.7</ele>
        <time>2014-04-06T07:08:19Z</time>
      </trkpt>
      <trkpt lat="48.10715" lon="3.302">
        <ele>111.6</ele>
        <time>2014-04-06T07:08:19Z</time>
      </trkpt>
      <trkpt lat="48.10634" lon="3.30025">
        <ele>115.2</ele>
        <time>2014-04-06T07:08:19Z</time>
      </trkpt>
      <trkpt lat="48.10502" lon="3.29902">
        <ele>140.2</ele>
        <time>2014-04-06T07:08:19Z</time>
      </trkpt>
      <trkpt lat="48.1044" lon="3.29653">
        <ele>142.2</ele>
        <time>2014-04-06T07:08:19Z</time>
      </trkpt>
      <trkpt lat="48.1036" lon="3.29454">
        <ele>147.5</ele>
        <time>2014-04-06T07:08:19Z</time>
      </trkpt>
      <trkpt lat="48.10325" lon="3.2919">
        <ele>141.5</ele>
        <time>2014-04-06T07:08:19Z</time>
      </trkpt>
      <trkpt lat="48.10261" lon="3.28974">
        <ele>143.5</ele>
        <time>2014-04-06T07:08:19Z</time>
      </trkpt>
      <trkpt lat="48.10216" lon="3.29144">
        <ele>156.8</ele>
        <time>2014-04-06T07:08:19Z</time>
      </trkpt>
      <trkpt lat="48.1023" lon="3.29417">
        <ele>161.5</ele>
        <time>2014-04-06T07:08:19Z</time>
      </trkpt>
      <trkpt lat="48.1014" lon="3.29525">
        <ele>165</ele>
        <time>2014-04-06T07:08:19Z</time>
      </trkpt>
      <trkpt lat="48.10061" lon="3.29614">
        <ele>163.2</ele>
        <time>2014-04-06T07:08:19Z</time>
      </trkpt>
      <trkpt lat="48.101" lon="3.29846">
        <ele>164.6</ele>
        <time>2014-04-06T07:08:19Z</time>
      </trkpt>
      <trkpt lat="48.09974" lon="3.2991">
        <ele>153.6</ele>
        <time>2014-04-06T07:08:19Z</time>
      </trkpt>
      <trkpt lat="48.09821" lon="3.29774">
        <ele>133</ele>
        <time>2014-04-06T07:08:19Z</time>
      </trkpt>
      <trkpt lat="48.09664" lon="3.29726">
        <ele>103.7</ele>
        <time>2014-04-06T07:08:19Z</time>
      </trkpt>
      <trkpt lat="48.09648" lon="3.29884">
        <ele>97.2</ele>
        <time>2014-04-06T07:08:19Z</time>
      </trkpt>
      <trkpt lat="48.09708" lon="3.30133">
        <ele>100.2</ele>
        <time>2014-04-06T07:08:19Z</time>
      </trkpt>
      <trkpt lat="48.09729" lon="3.30426">
        <ele>104.2</ele>
        <time>2014-04-06T07:08:19Z</time>
      </trkpt>
      <trkpt lat="48.09672" lon="3.30564">
        <ele>99.3</ele>
        <time>2014-04-06T07:08:19Z</time>
      </trkpt>
      <trkpt lat="48.095" lon="3.30569">
        <ele>83</ele>
        <time>2014-04-06T07:08:19Z</time>
      </trkpt>
      <trkpt lat="48.09435" lon="3.30787">
        <ele>79.7</ele>
        <time>2014-04-06T07:08:19Z</time>
      </trkpt>
      <trkpt lat="48.09359" lon="3.30952">
        <ele>79.9</ele>
        <time>2014-04-06T07:08:19Z</time>
      </trkpt>
      <trkpt lat="48.09249" lon="3.30643">
        <ele>77</ele>
        <time>2014-04-06T07:08:19Z</time>
      </trkpt>
      <trkpt lat="48.09111" lon="3.30496">
        <ele>76</ele>
        <time>2014-04-06T07:08:19Z</time>
      </trkpt>
      <trkpt lat="48.08995" lon="3.30296">
        <ele>75.7</ele>
        <time>2014-04-06T07:08:19Z</time>
      </trkpt>
      <trkpt lat="48.08877" lon="3.30136">
        <ele>76.6</ele>
        <time>2014-04-06T07:08:19Z</time>
      </trkpt>
      <trkpt lat="48.08748" lon="3.29949">
        <ele>77.1</ele>
        <time>2014-04-06T07:08:19Z</time>
      </trkpt>
      <trkpt lat="48.08604" lon="3.29871">
        <ele>78.5</ele>
        <time>2014-04-06T07:08:19Z</time>
      </trkpt>
      <trkpt lat="48.08503" lon="3.29971">
        <ele>80</ele>
        <time>2014-04-06T07:08:19Z</time>
      </trkpt>
      <trkpt lat="48.08342" lon="3.29944">
        <ele>78</ele>
        <time>2014-04-06T07:08:19Z</time>
      </trkpt>
      <trkpt lat="48.08176" lon="3.29936">
        <ele>80</ele>
        <time>2014-04-06T07:08:19Z</time>
      </trkpt>
      <trkpt lat="48.08041" lon="3.2989">
        <ele>78.2</ele>
        <time>2014-04-06T07:08:19Z</time>
      </trkpt>
      <trkpt lat="48.08011" lon="3.29673">
        <ele>75.8</ele>
        <time>2014-04-06T07:08:19Z</time>
      </trkpt>
      <trkpt lat="48.08047" lon="3.29502">
        <ele>77</ele>
        <time>2014-04-06T07:08:19Z</time>
      </trkpt>
      <trkpt lat="48.08054" lon="3.29461">
        <ele>76.6</ele>
        <time>2014-04-06T07:08:19Z</time>
      </trkpt>
      <trkpt lat="48.08052" lon="3.2946">
        <ele>76.6</ele>
        <time>2014-04-06T07:08:19Z</time>
      </trkpt>
      <trkpt lat="48.08053" lon="3.29458">
        <ele>76.5</ele>
        <time>2014-04-06T07:08:19Z</time>
      </trkpt>
      <trkpt lat="48.08053" lon="3.29456">
        <ele>76.4</ele>
        <time>2014-04-06T07:08:19Z</time>
      </trkpt>
      <trkpt lat="48.08052" lon="3.29454">
        <ele>76.3</ele>
        <time>2014-04-06T07:08:19Z</time>
      </trkpt>
      <trkpt lat="48.0805" lon="3.29455">
        <ele>76.4</ele>
        <time>2014-04-06T07:08:19Z</time>
      </trkpt>
      <trkpt lat="48.0805" lon="3.29452">
        <ele>76.3</ele>
        <time>2014-04-06T07:08:19Z</time>
      </trkpt>
      <trkpt lat="48.08052" lon="3.29451">
        <ele>76.2</ele>
        <time>2014-04-06T07:08:19Z</time>
      </trkpt>
      <trkpt lat="48.08054" lon="3.29449">
        <ele>76.2</ele>
        <time>2014-04-06T07:08:19Z</time>
      </trkpt>
      <trkpt lat="48.08054" lon="3.29451">
        <ele>76.2</ele>
        <time>2014-04-06T07:08:19Z</time>
      </trkpt>
      <trkpt lat="48.0805" lon="3.29449">
        <ele>76.2</ele>
        <time>2014-04-06T07:08:19Z</time>
      </trkpt>
      <trkpt lat="48.08051" lon="3.29447">
        <ele>76.1</ele>
        <time>2014-04-06T07:08:19Z</time>
      </trkpt>
      <trkpt lat="48.08051" lon="3.29447">
        <ele>76.1</ele>
        <time>2014-04-06T07:08:19Z</time>
      </trkpt>
      <trkpt lat="48.08049" lon="3.29446">
        <ele>76.1</ele>
        <time>2014-04-06T07:08:19Z</time>
      </trkpt>
      <trkpt lat="48.0805" lon="3.29451">
        <ele>76.2</ele>
        <time>2014-04-06T07:08:19Z</time>
      </trkpt>
      <trkpt lat="48.08048" lon="3.29452">
        <ele>76.3</ele>
        <time>2014-04-06T07:08:19Z</time>
      </trkpt>
      <trkpt lat="48.08048" lon="3.29451">
        <ele>76.2</ele>
        <time>2014-04-06T07:08:19Z</time>
      </trkpt>
      <trkpt lat="48.08048" lon="3.29453">
        <ele>76.3</ele>
        <time>2014-04-06T07:08:19Z</time>
      </trkpt>
      <trkpt lat="48.08046" lon="3.29452">
        <ele>76.3</ele>
        <time>2014-04-06T07:08:19Z</time>
      </trkpt>
      <trkpt lat="48.08044" lon="3.29452">
        <ele>76.3</ele>
        <time>2014-04-06T07:08:19Z</time>
      </trkpt>
      <trkpt lat="48.08043" lon="3.2945">
        <ele>76.2</ele>
        <time>2014-04-06T07:08:19Z</time>
      </trkpt>
      <trkpt lat="48.08043" lon="3.29448">
        <ele>76.1</ele>
        <time>2014-04-06T07:08:19Z</time>
      </trkpt>
    </trkseg>
  </trk>
</gpx>